User: anonymous   Login
Location: Peebles
(55.6412°N, 3.1714°W)
Time: 23:03:29
(UTC+00:00)
Language:

Cosmos 2263 Rocket - Orbit

View from above orbital plane
View from above orbital plane
View from above satellite
View from above satellite

Ground track
Ground track

The orbit data is extracted from the following two-line orbital elements,

1 22803U 93059B   21331.28598706 -.00000098  00000-0 -25081-4 0  9995
2 22803  70.9915  66.8848 0014987  68.9613 291.3111 14.16846745458067
Epoch (UTC): 27 November 2021 06:51:49
Eccentricity: 0.0014987
inclination: 70.9915°
perigee height: 825 km
apogee height: 847 km
right ascension of ascending node: 66.8848°
argument of perigee: 68.9613°
revolutions per day: 14.16846745
mean anomaly at epoch: 291.3111°
orbit number at epoch: 45806

The dashed part of the orbit path shows where the satellite is in the earth's shadow,  

DLR